| time (UTC) | temp F | wind direction | speed MPH | gust MPH | rain 1hr in | rain 24hr in | rain mn in | humidity % | barometer mb |
| 20260502194455 | 48 | 325 | 5.0 | 6.0 | 0.00 | 0.00 | 0.00 | 55 | 1016.5 |
| 20260502193950 | 47 | 274 | 4.0 | 4.0 | 0.00 | 0.00 | 0.00 | 53 | 1016.5 |
| 20260502193448 | 47 | 320 | 2.0 | 2.0 | 0.00 | 0.00 | 0.00 | 58 | 1016.5 |
| 20260502192944 | 46 | 327 | 3.0 | 3.0 | 0.00 | 0.00 | 0.00 | 58 | 1016.8 |
| 20260502192441 | 46 | 276 | 0.0 | 0.0 | 0.00 | 0.00 | 0.00 | 57 | 1016.8 |
| 20260502191937 | 46 | 307 | 5.0 | 6.0 | 0.00 | 0.00 | 0.00 | 58 | 1016.8 |
| 20260502191435 | 46 | 330 | 7.0 | 7.0 | 0.00 | 0.00 | 0.00 | 55 | 1016.8 |
| 20260502190933 | 47 | 252 | 4.0 | 4.0 | 0.00 | 0.00 | 0.00 | 57 | 1016.8 |
| 20260502190430 | 47 | 306 | 3.0 | 3.0 | 0.00 | 0.00 | 0.00 | 55 | 1016.8 |
| 20260502185926 | 47 | 282 | 3.0 | 3.0 | 0.00 | 0.00 | 0.00 | 53 | 1016.8 |
| 20260502185421 | 47 | 348 | 2.0 | 2.0 | 0.00 | 0.00 | 0.00 | 53 | 1016.8 |
| 20260502184919 | 47 | 307 | 3.0 | 3.0 | 0.00 | 0.00 | 0.00 | 55 | 1016.8 |
| 20260502184414 | 48 | 282 | 2.0 | 2.0 | 0.00 | 0.00 | 0.00 | 51 | 1016.8 |
| 20260502183911 | 47 | 294 | 0.0 | 0.0 | 0.00 | 0.00 | 0.00 | 58 | 1016.8 |
| 20260502183407 | 46 | 312 | 2.0 | 2.0 | 0.00 | 0.00 | 0.00 | 58 | 1016.8 |
| 20260502182902 | 45 | 282 | 2.0 | 2.0 | 0.00 | 0.00 | 0.00 | 60 | 1017.2 |
| 20260502182358 | 46 | 330 | 6.0 | 6.0 | 0.00 | 0.00 | 0.00 | 59 | 1017.2 |
| 20260502181854 | 46 | 277 | 1.0 | 1.0 | 0.00 | 0.00 | 0.00 | 59 | 1017.2 |
| 20260502181353 | 46 | 169 | 0.0 | 0.0 | 0.00 | 0.00 | 0.00 | 56 | 1017.2 |
| 20260502180851 | 47 | 312 | 3.0 | 3.0 | 0.00 | 0.00 | 0.00 | 56 | 1017.2 |
| 20260502180348 | 46 | 330 | 2.0 | 2.0 | 0.00 | 0.00 | 0.00 | 56 | 1017.2 |
| 20260502170307 | 44 | 276 | 3.0 | 3.0 | 0.00 | 0.00 | 0.00 | 66 | 1017.5 |
| 20260502164254 | 44 | 292 | 4.0 | 4.0 | 0.00 | 0.00 | 0.00 | 66 | 1017.5 |
| 20260502163750 | 44 | 319 | 4.0 | 4.0 | 0.00 | 0.00 | 0.00 | 65 | 1017.5 |
| 20260502163247 | 44 | 318 | 4.0 | 4.0 | 0.00 | 0.00 | 0.00 | 62 | 1017.5 |
| 20260502162744 | 44 | 318 | 5.0 | 5.0 | 0.00 | 0.00 | 0.00 | 65 | 1017.5 |
| 20260502162240 | 44 | 359 | 6.0 | 6.0 | 0.00 | 0.00 | 0.00 | 64 | 1017.5 |
| 20260502161737 | 43 | 353 | 4.0 | 4.0 | 0.00 | 0.00 | 0.00 | 63 | 1017.5 |
| 20260502161234 | 43 | 330 | 2.0 | 2.0 | 0.00 | 0.00 | 0.00 | 64 | 1017.8 |
| 20260502160732 | 43 | 312 | 6.0 | 6.0 | 0.00 | 0.00 | 0.00 | 63 | 1017.8 |
| 20260502160231 | 43 | 342 | 6.0 | 6.0 | 0.00 | 0.00 | 0.00 | 65 | 1017.8 |
| 20260502152154 | 43 | 58 | 5.0 | 6.0 | 0.00 | 0.00 | 0.00 | 65 | 1017.5 |
| 20260502151652 | 42 | 17 | 6.0 | 7.0 | 0.00 | 0.00 | 0.00 | 71 | 1017.5 |
| 20260502151149 | 43 | 40 | 8.0 | 9.0 | 0.00 | 0.00 | 0.00 | 72 | 1017.5 |
| 20260502150647 | 43 | 70 | 4.0 | 4.0 | 0.00 | 0.00 | 0.00 | 73 | 1017.5 |
| 20260502150143 | 42 | 30 | 5.0 | 6.0 | 0.00 | 0.00 | 0.00 | 76 | 1017.5 |
| 20260502140106 | 41 | 306 | 3.0 | 3.0 | 0.00 | 0.00 | 0.00 | 86 | 1016.8 |
| 20260502130531 | 40 | 294 | 6.0 | 6.0 | 0.00 | 0.00 | 0.00 | 83 | 1016.8 |
| 20260502123515 | 38 | 306 | 4.0 | 4.0 | 0.00 | 0.00 | 0.00 | 87 | 1017.2 |
| 20260502123011 | 39 | 312 | 5.0 | 6.0 | 0.00 | 0.00 | 0.00 | 87 | 1017.2 |
| 20260502122508 | 39 | 290 | 4.0 | 4.0 | 0.00 | 0.00 | 0.00 | 85 | 1016.5 |
| 20260502122005 | 40 | 300 | 6.0 | 7.0 | 0.00 | 0.00 | 0.00 | 83 | 1016.5 |
| 20260502121503 | 40 | 300 | 4.0 | 4.0 | 0.00 | 0.00 | 0.00 | 79 | 1016.8 |
| 20260502121000 | 40 | 300 | 5.0 | 5.0 | 0.00 | 0.00 | 0.00 | 79 | 1016.8 |
| 20260502120456 | 40 | 312 | 3.0 | 3.0 | 0.00 | 0.00 | 0.00 | 82 | 1016.8 |
| 20260502115450 | 40 | 294 | 4.0 | 4.0 | 0.00 | 0.00 | 0.00 | 81 | 1016.5 |
| 20260502114946 | 40 | 332 | 3.0 | 3.0 | 0.00 | 0.00 | 0.00 | 83 | 1016.5 |
| 20260502114443 | 40 | 346 | 0.0 | 0.0 | 0.00 | 0.00 | 0.00 | 85 | 1016.5 |
| 20260502113940 | 40 | 346 | 0.0 | 0.0 | 0.00 | 0.00 | 0.00 | 84 | 1016.5 |
| 20260502113438 | 40 | 320 | 0.0 | 0.0 | 0.00 | 0.00 | 0.00 | 85 | 1016.5 |
| 20260502112937 | 40 | 342 | 0.0 | 0.0 | 0.00 | 0.00 | 0.00 | 86 | 1016.0 |
| 20260502112434 | 40 | 294 | 0.0 | 0.0 | 0.00 | 0.00 | 0.00 | 90 | 1016.0 |
| 20260502111931 | 39 | 306 | 0.0 | 0.0 | 0.00 | 0.00 | 0.00 | 92 | 1016.0 |
| 20260502111428 | 39 | 288 | 0.0 | 0.0 | 0.00 | 0.00 | 0.00 | 93 | 1016.5 |
| 20260502110925 | 39 | 306 | 0.0 | 0.0 | 0.00 | 0.00 | 0.00 | 93 | 1016.5 |
| 20260502110423 | 39 | 52 | 0.0 | 0.0 | 0.00 | 0.00 | 0.00 | 93 | 1016.5 |
| 20260502105920 | 39 | 51 | 0.0 | 0.0 | 0.00 | 0.00 | 0.00 | 93 | 1016.5 |
| 20260502105417 | 39 | 53 | 0.0 | 0.0 | 0.00 | 0.00 | 0.00 | 92 | 1016.5 |
| 20260502104915 | 39 | 53 | 0.0 | 0.0 | 0.00 | 0.00 | 0.00 | 92 | 1016.5 |
| 20260502104412 | 39 | 53 | 0.0 | 0.0 | 0.00 | 0.00 | 0.00 | 91 | 1016.0 |
| 20260502103909 | 39 | 53 | 0.0 | 0.0 | 0.00 | 0.00 | 0.00 | 91 | 1016.0 |
| 20260502103407 | 39 | 53 | 0.0 | 0.0 | 0.00 | 0.00 | 0.00 | 90 | 1016.0 |
| 20260502102904 | 39 | 48 | 0.0 | 0.0 | 0.00 | 0.00 | 0.00 | 90 | 1016.0 |
| 20260502102400 | 39 | 353 | 0.0 | 0.0 | 0.00 | 0.00 | 0.00 | 91 | 1016.0 |
| 20260502101858 | 39 | 336 | 0.0 | 0.0 | 0.00 | 0.00 | 0.00 | 91 | 1016.0 |
| 20260502101356 | 39 | 345 | 0.0 | 0.0 | 0.00 | 0.00 | 0.00 | 91 | 1015.7 |
| 20260502100854 | 39 | 306 | 2.0 | 2.0 | 0.00 | 0.00 | 0.00 | 92 | 1015.7 |
| 20260502100353 | 39 | 0 | 0.0 | 0.0 | 0.00 | 0.00 | 0.00 | 92 | 1015.7 |
| 20260502091327 | 38 | 16 | 3.0 | 3.0 | 0.00 | 0.00 | 0.00 | 91 | 1015.7 |
| 20260502090825 | 38 | 36 | 4.0 | 4.0 | 0.00 | 0.00 | 0.00 | 91 | 1015.7 |
| 20260502090321 | 38 | 10 | 4.0 | 4.0 | 0.00 | 0.00 | 0.00 | 91 | 1015.7 |
| 20260502071216 | 38 | 222 | 0.0 | 0.0 | 0.00 | 0.00 | 0.00 | 90 | 1015.4 |
| 20260502070715 | 38 | 252 | 0.0 | 0.0 | 0.00 | 0.00 | 0.00 | 90 | 1015.4 |
| 20260502070212 | 39 | 228 | 0.0 | 0.0 | 0.00 | 0.00 | 0.00 | 90 | 1015.4 |
| 20260502065710 | 39 | 192 | 0.0 | 0.0 | 0.00 | 0.00 | 0.00 | 90 | 1015.4 |
| 20260502065208 | 39 | 228 | 0.0 | 0.0 | 0.00 | 0.00 | 0.00 | 90 | 1015.4 |
| 20260502064706 | 40 | 210 | 0.0 | 0.0 | 0.00 | 0.00 | 0.00 | 90 | 1015.4 |
| 20260502064203 | 40 | 204 | 0.0 | 0.0 | 0.00 | 0.00 | 0.00 | 90 | 1015.4 |
| 20260502063701 | 40 | 216 | 0.0 | 0.0 | 0.00 | 0.00 | 0.00 | 90 | 1015.4 |
| 20260502063158 | 40 | 216 | 0.0 | 0.0 | 0.00 | 0.00 | 0.00 | 90 | 1015.4 |
| 20260502062655 | 40 | 204 | 0.0 | 0.0 | 0.00 | 0.00 | 0.00 | 91 | 1015.4 |
| 20260502062153 | 40 | 210 | 0.0 | 0.0 | 0.00 | 0.00 | 0.00 | 91 | 1015.4 |
| 20260502061651 | 40 | 200 | 0.0 | 0.0 | 0.00 | 0.00 | 0.00 | 91 | 1015.4 |
| 20260502061148 | 40 | 185 | 0.0 | 0.0 | 0.00 | 0.00 | 0.00 | 90 | 1015.4 |
| 20260502060648 | 40 | 200 | 0.0 | 0.0 | 0.00 | 0.00 | 0.00 | 90 | 1015.4 |
| 20260502060145 | 40 | 146 | 0.0 | 0.0 | 0.00 | 0.00 | 0.00 | 90 | 1015.4 |
| 20260502055643 | 40 | 173 | 0.0 | 0.0 | 0.00 | 0.00 | 0.00 | 89 | 1015.4 |
| 20260502055141 | 40 | 216 | 0.0 | 0.0 | 0.00 | 0.00 | 0.00 | 90 | 1015.4 |
| 20260502054640 | 41 | 180 | 0.0 | 0.0 | 0.00 | 0.00 | 0.00 | 91 | 1015.4 |
| 20260502054136 | 41 | 228 | 0.0 | 0.0 | 0.00 | 0.00 | 0.00 | 92 | 1015.4 |
| 20260502053634 | 41 | 222 | 0.0 | 0.0 | 0.00 | 0.00 | 0.00 | 92 | 1015.4 |
| 20260502053131 | 41 | 168 | 0.0 | 0.0 | 0.00 | 0.00 | 0.00 | 93 | 1015.4 |
| 20260502052629 | 41 | 204 | 0.0 | 0.0 | 0.00 | 0.00 | 0.00 | 92 | 1015.7 |
| 20260502052127 | 41 | 204 | 0.0 | 0.0 | 0.00 | 0.00 | 0.00 | 91 | 1015.7 |
| 20260502051625 | 41 | 204 | 0.0 | 0.0 | 0.00 | 0.00 | 0.00 | 91 | 1015.7 |
| 20260502051123 | 41 | 198 | 0.0 | 0.0 | 0.00 | 0.00 | 0.00 | 91 | 1015.7 |
| 20260502050619 | 41 | 180 | 0.0 | 0.0 | 0.00 | 0.00 | 0.00 | 91 | 1015.7 |
| 20260502050115 | 42 | 184 | 0.0 | 0.0 | 0.00 | 0.00 | 0.00 | 89 | 1015.7 |
| 20260502045612 | 41 | 210 | 0.0 | 0.0 | 0.00 | 0.00 | 0.00 | 89 | 1016.0 |
| 20260502045110 | 42 | 220 | 0.0 | 0.0 | 0.00 | 0.00 | 0.00 | 90 | 1016.0 |
| 20260502044606 | 42 | 186 | 0.0 | 0.0 | 0.00 | 0.00 | 0.00 | 89 | 1016.0 |
| 20260502044102 | 42 | 179 | 0.0 | 0.0 | 0.00 | 0.00 | 0.00 | 87 | 1015.7 |
| 20260502043600 | 43 | 152 | 0.0 | 0.0 | 0.00 | 0.00 | 0.00 | 86 | 1015.7 |
| 20260502043057 | 43 | 109 | 2.0 | 2.0 | 0.00 | 0.00 | 0.00 | 85 | 1015.7 |
| 20260502042551 | 43 | 247 | 0.0 | 0.0 | 0.00 | 0.00 | 0.00 | 84 | 1015.7 |
| 20260502042049 | 43 | 306 | 2.0 | 2.0 | 0.00 | 0.00 | 0.00 | 82 | 1015.7 |
| 20260502041546 | 42 | 331 | 3.0 | 3.0 | 0.00 | 0.00 | 0.00 | 86 | 1015.7 |
| 20260502041043 | 43 | 222 | 0.0 | 0.0 | 0.00 | 0.00 | 0.00 | 88 | 1015.7 |
| 20260502040540 | 43 | 172 | 0.0 | 0.0 | 0.00 | 0.00 | 0.00 | 87 | 1015.7 |
| 20260502040037 | 43 | 228 | 2.0 | 2.0 | 0.00 | 0.00 | 0.00 | 87 | 1015.7 |
| 20260502035532 | 43 | 222 | 0.0 | 0.0 | 0.00 | 0.37 | 0.37 | 89 | 1015.7 |
| 20260502035030 | 43 | 174 | 0.0 | 0.0 | 0.00 | 0.37 | 0.37 | 88 | 1015.7 |
| 20260502034528 | 42 | 222 | 0.0 | 0.0 | 0.00 | 0.37 | 0.37 | 89 | 1015.7 |
| 20260502034026 | 43 | 36 | 0.0 | 0.0 | 0.00 | 0.37 | 0.37 | 90 | 1015.7 |
| 20260502033524 | 42 | 336 | 3.0 | 3.0 | 0.00 | 0.37 | 0.37 | 90 | 1015.7 |
| 20260502033021 | 42 | 78 | 1.0 | 1.0 | 0.00 | 0.37 | 0.37 | 92 | 1015.7 |
| 20260502032517 | 42 | 228 | 0.0 | 0.0 | 0.00 | 0.37 | 0.37 | 91 | 1015.4 |
| 20260502032014 | 42 | 274 | 0.0 | 0.0 | 0.00 | 0.37 | 0.37 | 90 | 1015.4 |
| 20260502031512 | 42 | 264 | 0.0 | 0.0 | 0.00 | 0.37 | 0.37 | 90 | 1015.4 |
| 20260502031010 | 42 | 264 | 0.0 | 0.0 | 0.00 | 0.37 | 0.37 | 91 | 1015.4 |
| 20260502030508 | 42 | 264 | 0.0 | 0.0 | 0.00 | 0.37 | 0.37 | 91 | 1015.4 |
| 20260502030006 | 42 | 270 | 0.0 | 0.0 | 0.00 | 0.37 | 0.37 | 91 | 1015.4 |
| 20260502025503 | 42 | 270 | 0.0 | 0.0 | 0.00 | 0.37 | 0.37 | 90 | 1015.4 |
| 20260502025001 | 42 | 306 | 2.0 | 2.0 | 0.00 | 0.37 | 0.37 | 90 | 1015.4 |
| 20260502024458 | 42 | 294 | 0.0 | 0.0 | 0.00 | 0.37 | 0.37 | 91 | 1015.0 |
| 20260502023956 | 42 | 258 | 0.0 | 0.0 | 0.00 | 0.37 | 0.37 | 92 | 1015.0 |
| 20260502023453 | 42 | 258 | 0.0 | 0.0 | 0.00 | 0.37 | 0.37 | 91 | 1015.0 |
| 20260502022951 | 42 | 258 | 0.0 | 0.0 | 0.00 | 0.37 | 0.37 | 90 | 1015.4 |
| 20260502022447 | 42 | 258 | 0.0 | 0.0 | 0.00 | 0.37 | 0.37 | 90 | 1015.4 |
| 20260502021944 | 42 | 258 | 0.0 | 0.0 | 0.00 | 0.37 | 0.37 | 90 | 1015.4 |
| 20260502021442 | 42 | 276 | 0.0 | 0.0 | 0.00 | 0.37 | 0.37 | 90 | 1015.4 |
| 20260502020938 | 43 | 276 | 0.0 | 0.0 | 0.00 | 0.37 | 0.37 | 88 | 1015.4 |
| 20260502020437 | 43 | 325 | 0.0 | 0.0 | 0.00 | 0.37 | 0.37 | 87 | 1015.4 |
| 20260502015932 | 43 | 341 | 2.0 | 2.0 | 0.02 | 0.37 | 0.37 | 85 | 1015.0 |
| 20260502015431 | 43 | 342 | 4.0 | 4.0 | 0.01 | 0.36 | 0.36 | 84 | 1015.0 |
| 20260502014927 | 43 | 302 | 0.0 | 0.0 | 0.01 | 0.36 | 0.36 | 85 | 1015.0 |
| 20260502014424 | 43 | 306 | 2.0 | 2.0 | 0.01 | 0.36 | 0.36 | 85 | 1015.0 |
| 20260502013920 | 42 | 294 | 2.0 | 2.0 | 0.01 | 0.36 | 0.36 | 85 | 1015.0 |
| 20260502013416 | 43 | 270 | 0.0 | 0.0 | 0.01 | 0.36 | 0.36 | 87 | 1015.0 |
| 20260502012913 | 43 | 270 | 0.0 | 0.0 | 0.01 | 0.36 | 0.36 | 85 | 1014.7 |
| 20260502012411 | 42 | 270 | 2.0 | 2.0 | 0.01 | 0.36 | 0.36 | 86 | 1014.7 |
| 20260502011908 | 42 | 306 | 2.0 | 2.0 | 0.01 | 0.36 | 0.36 | 88 | 1014.7 |
| 20260502011404 | 42 | 176 | 0.0 | 0.0 | 0.01 | 0.36 | 0.36 | 89 | 1014.4 |
| 20260502010901 | 42 | 255 | 0.0 | 0.0 | 0.01 | 0.36 | 0.36 | 89 | 1014.4 |
| 20260502010357 | 43 | 288 | 3.0 | 3.0 | 0.00 | 0.35 | 0.35 | 84 | 1014.4 |
| 20260502005854 | 43 | 294 | 3.0 | 3.0 | 0.01 | 0.35 | 0.35 | 80 | 1014.4 |
| 20260502005352 | 43 | 216 | 4.0 | 4.0 | 0.00 | 0.34 | 0.34 | 83 | 1014.4 |
| 20260502004849 | 44 | 326 | 4.0 | 4.0 | 0.00 | 0.34 | 0.34 | 81 | 1014.4 |
| 20260502004345 | 44 | 29 | 4.0 | 4.0 | 0.00 | 0.34 | 0.34 | 81 | 1014.4 |
| 20260502003843 | 44 | 22 | 3.0 | 3.0 | 0.00 | 0.34 | 0.34 | 80 | 1014.4 |
| 20260502003340 | 44 | 348 | 4.0 | 4.0 | 0.00 | 0.34 | 0.34 | 82 | 1014.4 |
| 20260502002836 | 44 | 330 | 0.0 | 0.0 | 0.00 | 0.34 | 0.34 | 81 | 1013.7 |
| 20260502002334 | 44 | 174 | 0.0 | 0.0 | 0.00 | 0.34 | 0.34 | 81 | 1013.7 |
| 20260502001831 | 44 | 54 | 4.0 | 4.0 | 0.00 | 0.34 | 0.34 | 79 | 1013.7 |
| 20260502001329 | 44 | 208 | 0.0 | 0.0 | 0.00 | 0.34 | 0.34 | 79 | 1014.0 |
| 20260502000826 | 44 | 12 | 4.0 | 4.0 | 0.00 | 0.34 | 0.34 | 79 | 1014.0 |
| 20260502000325 | 45 | 354 | 4.0 | 4.0 | 0.00 | 0.34 | 0.34 | 78 | 1014.0 |
| 20260501235820 | 45 | 42 | 3.0 | 3.0 | 0.00 | 0.34 | 0.34 | 76 | 1014.0 |
| 20260501235316 | 45 | 8 | 3.0 | 4.0 | 0.00 | 0.34 | 0.34 | 75 | 1014.0 |
| 20260501234811 | 46 | 356 | 3.0 | 3.0 | 0.00 | 0.34 | 0.34 | 75 | 1014.0 |
| 20260501234309 | 46 | 324 | 3.0 | 4.0 | 0.00 | 0.34 | 0.34 | 79 | 1014.0 |
| 20260501233807 | 46 | 263 | 0.0 | 0.0 | 0.00 | 0.34 | 0.34 | 79 | 1014.0 |
| 20260501233304 | 46 | 208 | 0.0 | 0.0 | 0.00 | 0.34 | 0.34 | 77 | 1014.0 |
| 20260501232759 | 46 | 196 | 0.0 | 0.0 | 0.00 | 0.34 | 0.34 | 77 | 1013.7 |
| 20260501232257 | 46 | 218 | 0.0 | 0.0 | 0.00 | 0.34 | 0.34 | 76 | 1013.7 |
| 20260501231754 | 47 | 230 | 0.0 | 0.0 | 0.00 | 0.34 | 0.34 | 76 | 1013.7 |
| 20260501231252 | 46 | 188 | 0.0 | 0.0 | 0.00 | 0.34 | 0.34 | 75 | 1013.7 |
| 20260501230750 | 47 | 246 | 0.0 | 0.0 | 0.00 | 0.34 | 0.34 | 78 | 1013.7 |
| 20260501230249 | 47 | 202 | 0.0 | 0.0 | 0.00 | 0.34 | 0.34 | 75 | 1013.7 |
| 20260501225746 | 47 | 208 | 0.0 | 0.0 | 0.00 | 0.34 | 0.34 | 74 | 1014.0 |
| 20260501225243 | 47 | 208 | 0.0 | 0.0 | 0.00 | 0.34 | 0.34 | 77 | 1014.0 |
| 20260501224739 | 47 | 222 | 2.0 | 2.0 | 0.00 | 0.34 | 0.34 | 76 | 1014.0 |
| 20260501224237 | 47 | 224 | 3.0 | 3.0 | 0.00 | 0.34 | 0.34 | 73 | 1013.7 |
| 20260501223733 | 47 | 224 | 2.0 | 2.0 | 0.00 | 0.34 | 0.34 | 73 | 1013.7 |
| 20260501223229 | 47 | 216 | 2.0 | 2.0 | 0.00 | 0.34 | 0.34 | 77 | 1013.7 |
| 20260501222725 | 47 | 236 | 0.0 | 0.0 | 0.00 | 0.34 | 0.34 | 75 | 1014.0 |
| 20260501222223 | 47 | 228 | 1.0 | 1.0 | 0.00 | 0.34 | 0.34 | 73 | 1014.0 |
| 20260501221720 | 47 | 225 | 0.0 | 0.0 | 0.00 | 0.34 | 0.34 | 74 | 1014.0 |
| 20260501221217 | 47 | 220 | 0.0 | 0.0 | 0.00 | 0.34 | 0.34 | 73 | 1013.7 |
| 20260501220714 | 46 | 206 | 2.0 | 2.0 | 0.00 | 0.34 | 0.34 | 73 | 1013.7 |
| 20260501220211 | 47 | 224 | 0.0 | 0.0 | 0.00 | 0.34 | 0.34 | 73 | 1013.7 |
| 20260501215709 | 47 | 222 | 0.0 | 0.0 | 0.00 | 0.34 | 0.34 | 73 | 1013.7 |
| 20260501215203 | 47 | 228 | 0.0 | 0.0 | 0.00 | 0.34 | 0.34 | 73 | 1013.7 |
| 20260501214658 | 47 | 160 | 4.0 | 4.0 | 0.00 | 0.34 | 0.34 | 75 | 1013.7 |
| 20260501214155 | 47 | 228 | 2.0 | 2.0 | 0.00 | 0.34 | 0.34 | 75 | 1013.7 |
| 20260501213652 | 47 | 216 | 2.0 | 2.0 | 0.00 | 0.34 | 0.34 | 75 | 1013.7 |
| 20260501213147 | 47 | 179 | 1.0 | 1.0 | 0.00 | 0.34 | 0.34 | 74 | 1013.7 |
| 20260501212644 | 47 | 162 | 0.0 | 0.0 | 0.00 | 0.34 | 0.34 | 74 | 1013.7 |
| 20260501212141 | 47 | 180 | 0.0 | 0.0 | 0.00 | 0.34 | 0.34 | 74 | 1013.7 |
| 20260501211638 | 47 | 164 | 2.0 | 2.0 | 0.00 | 0.34 | 0.34 | 72 | 1013.7 |
| 20260501211135 | 47 | 166 | 0.0 | 0.0 | 0.00 | 0.34 | 0.34 | 74 | 1013.7 |
| 20260501210632 | 47 | 240 | 2.0 | 2.0 | 0.00 | 0.34 | 0.34 | 73 | 1013.7 |
| 20260501210128 | 48 | 212 | 2.0 | 2.0 | 0.00 | 0.34 | 0.34 | 72 | 1013.7 |
| 20260501205625 | 47 | 167 | 0.0 | 0.0 | 0.00 | 0.34 | 0.34 | 73 | 1013.7 |
| 20260501205123 | 46 | 173 | 0.0 | 0.0 | 0.00 | 0.34 | 0.34 | 74 | 1013.7 |
| 20260501204619 | 46 | 138 | 2.0 | 2.0 | 0.00 | 0.34 | 0.34 | 74 | 1013.7 |
| 20260501204115 | 46 | 216 | 0.0 | 0.0 | 0.00 | 0.34 | 0.34 | 74 | 1013.3 |
| 20260501203612 | 46 | 109 | 0.0 | 0.0 | 0.00 | 0.34 | 0.34 | 75 | 1013.3 |
| 20260501203109 | 46 | 154 | 2.0 | 2.0 | 0.00 | 0.34 | 0.34 | 76 | 1013.3 |
| 20260501202606 | 46 | 126 | 3.0 | 3.0 | 0.00 | 0.34 | 0.34 | 75 | 1013.7 |
| 20260501202103 | 46 | 180 | 0.0 | 0.0 | 0.00 | 0.34 | 0.34 | 75 | 1013.7 |
| 20260501201600 | 46 | 201 | 0.0 | 0.0 | 0.00 | 0.34 | 0.34 | 74 | 1013.7 |
| 20260501201056 | 46 | 162 | 0.0 | 0.0 | 0.00 | 0.34 | 0.34 | 75 | 1013.3 |
| 20260501200553 | 46 | 199 | 0.0 | 0.0 | 0.00 | 0.34 | 0.34 | 75 | 1013.3 |
| 20260501200051 | 46 | 132 | 0.0 | 0.0 | 0.00 | 0.34 | 0.34 | 75 | 1013.3 |
| 20260501195548 | 45 | 43 | 0.0 | 0.0 | 0.00 | 0.34 | 0.34 | 73 | 1013.3 |
| 20260501195043 | 46 | 80 | 3.0 | 3.0 | 0.00 | 0.34 | 0.34 | 76 | 1013.3 |